Time,TemperatureF,DewpointF,PressureIn,WindDirection,WindDirectionDegrees,WindSpeedMPH,WindSpeedGustMPH,Humidity,HourlyPrecipIn,Conditions,Clouds,dailyrainin,SoftwareType,DateUTC
2013-05-29 00:02:00,68.0,65.0,30.19,NW,320,0.0,1.0,91,0.00,,,0.00,,2013-05-29 04:02:00,
2013-05-29 00:13:00,68.0,65.0,30.19,NW,320,0.0,1.0,91,0.00,,,0.00,,2013-05-29 04:13:00,
2013-05-29 00:23:00,67.0,65.0,30.19,NW,320,0.0,0.0,92,0.00,,,0.00,,2013-05-29 04:23:00,
2013-05-29 00:33:00,67.0,65.0,30.19,NW,320,0.0,0.0,93,0.00,,,0.00,,2013-05-29 04:33:00,
2013-05-29 00:42:00,67.0,65.0,30.19,NW,320,0.0,0.0,93,0.00,,,0.00,,2013-05-29 04:42:00,
2013-05-29 00:53:00,67.0,65.0,30.19,NW,320,0.0,0.0,94,0.00,,,0.00,,2013-05-29 04:53:00,
2013-05-29 01:03:00,67.0,65.0,30.19,NW,320,0.0,1.0,94,0.00,,,0.00,,2013-05-29 05:03:00,
2013-05-29 01:12:00,67.0,65.0,30.19,NW,320,0.0,1.0,94,0.00,,,0.00,,2013-05-29 05:12:00,
2013-05-29 01:22:00,67.0,65.0,30.19,NW,320,0.0,2.0,94,0.00,,,0.00,,2013-05-29 05:22:00,
2013-05-29 01:33:00,67.0,65.0,30.19,NW,320,0.0,0.0,94,0.00,,,0.00,,2013-05-29 05:33:00,
2013-05-29 01:42:00,67.0,65.0,30.19,NW,320,0.0,0.0,94,0.00,,,0.00,,2013-05-29 05:42:00,
2013-05-29 01:52:00,67.0,66.0,30.19,NW,320,0.0,0.0,95,0.00,,,0.00,,2013-05-29 05:52:00,
2013-05-29 02:02:00,67.0,66.0,30.18,NW,320,0.0,1.0,95,0.00,,,0.00,,2013-05-29 06:02:00,
2013-05-29 02:12:00,67.0,66.0,30.18,NW,320,0.0,1.0,95,0.00,,,0.00,,2013-05-29 06:12:00,
2013-05-29 02:22:00,67.0,66.0,30.18,NW,320,0.0,0.0,95,0.00,,,0.00,,2013-05-29 06:22:00,
2013-05-29 02:32:00,67.0,66.0,30.17,NW,320,0.0,0.0,95,0.00,,,0.00,,2013-05-29 06:32:00,
2013-05-29 02:42:00,67.0,66.0,30.17,NW,320,0.0,0.0,95,0.00,,,0.00,,2013-05-29 06:42:00,
2013-05-29 02:52:00,67.0,66.0,30.17,NW,320,0.0,0.0,95,0.00,,,0.00,,2013-05-29 06:52:00,
2013-05-29 03:01:00,66.0,65.0,30.16,NW,320,0.0,0.0,95,0.00,,,0.00,,2013-05-29 07:01:00,
2013-05-29 03:11:00,66.0,65.0,30.16,NW,320,0.0,0.0,95,0.00,,,0.00,,2013-05-29 07:11:00,
2013-05-29 03:22:00,66.0,65.0,30.16,NW,320,0.0,1.0,95,0.00,,,0.00,,2013-05-29 07:22:00,
2013-05-29 03:34:00,66.0,65.0,30.16,West,277,0.0,2.0,95,0.00,,,0.00,,2013-05-29 07:34:00,
2013-05-29 03:42:00,66.0,65.0,30.16,West,277,0.0,2.0,95,0.00,,,0.00,,2013-05-29 07:42:00,
2013-05-29 03:53:00,66.0,65.0,30.16,West,278,0.0,1.0,96,0.00,,,0.00,,2013-05-29 07:53:00,
2013-05-29 04:02:00,66.0,65.0,30.15,West,278,0.0,0.0,96,0.00,,,0.00,,2013-05-29 08:02:00,
2013-05-29 04:11:00,66.0,65.0,30.15,West,278,0.0,0.0,96,0.00,,,0.00,,2013-05-29 08:11:00,
2013-05-29 04:22:00,66.0,65.0,30.15,West,278,0.0,0.0,96,0.00,,,0.00,,2013-05-29 08:22:00,
2013-05-29 04:32:00,66.0,65.0,30.14,West,278,0.0,1.0,96,0.00,,,0.00,,2013-05-29 08:32:00,
2013-05-29 04:42:00,66.0,65.0,30.14,West,278,0.0,1.0,96,0.00,,,0.00,,2013-05-29 08:42:00,
2013-05-29 04:52:00,66.0,65.0,30.14,West,278,0.0,0.0,96,0.00,,,0.00,,2013-05-29 08:52:00,
2013-05-29 05:01:00,65.0,64.0,30.14,West,278,0.0,0.0,96,0.00,,,0.00,,2013-05-29 09:01:00,
2013-05-29 05:11:00,65.0,64.0,30.14,West,278,0.0,0.0,96,0.00,,,0.00,,2013-05-29 09:11:00,
2013-05-29 05:21:00,65.0,64.0,30.14,West,276,0.0,1.0,97,0.00,,,0.00,,2013-05-29 09:21:00,
2013-05-29 05:33:00,65.0,64.0,30.14,South,189,0.0,2.0,97,0.00,,,0.00,,2013-05-29 09:33:00,
2013-05-29 05:42:00,65.0,64.0,30.14,South,189,0.0,2.0,97,0.00,,,0.00,,2013-05-29 09:42:00,
2013-05-29 05:52:00,65.0,64.0,30.15,South,188,0.0,2.0,97,0.00,,,0.00,,2013-05-29 09:52:00,
2013-05-29 06:03:00,65.0,64.0,30.15,SSE,163,0.0,3.0,97,0.00,,,0.00,,2013-05-29 10:03:00,
2013-05-29 06:12:00,65.0,64.0,30.15,SSE,163,0.0,3.0,97,0.00,,,0.00,,2013-05-29 10:12:00,
2013-05-29 06:22:00,65.0,64.0,30.16,SSE,162,0.0,0.0,97,0.00,,,0.00,,2013-05-29 10:22:00,
2013-05-29 06:33:00,65.0,64.0,30.17,SSE,162,0.0,0.0,97,0.00,,,0.00,,2013-05-29 10:33:00,
2013-05-29 06:42:00,65.0,64.0,30.17,SSE,162,0.0,0.0,97,0.00,,,0.00,,2013-05-29 10:42:00,
2013-05-29 06:53:00,65.0,64.0,30.18,SSE,163,0.0,0.0,97,0.00,,,0.00,,2013-05-29 10:53:00,
2013-05-29 07:02:00,65.0,64.0,30.18,SSE,163,0.0,1.0,97,0.00,,,0.00,,2013-05-29 11:02:00,
2013-05-29 07:12:00,65.0,64.0,30.18,SSE,163,0.0,1.0,97,0.00,,,0.00,,2013-05-29 11:12:00,
2013-05-29 07:22:00,65.0,64.0,30.19,SSE,163,0.0,0.0,97,0.00,,,0.00,,2013-05-29 11:22:00,
2013-05-29 07:32:00,65.0,64.0,30.19,SSE,163,0.0,0.0,97,0.00,,,0.00,,2013-05-29 11:32:00,
2013-05-29 07:42:00,65.0,64.0,30.19,SSE,163,0.0,0.0,97,0.00,,,0.00,,2013-05-29 11:42:00,
2013-05-29 07:52:00,66.0,65.0,30.20,SSE,163,0.0,0.0,98,0.00,,,0.00,,2013-05-29 11:52:00,
2013-05-29 08:01:00,66.0,65.0,30.20,SSE,163,0.0,1.0,98,0.00,,,0.00,,2013-05-29 12:01:00,
2013-05-29 08:11:00,66.0,65.0,30.20,SSE,163,0.0,1.0,98,0.00,,,0.00,,2013-05-29 12:11:00,
2013-05-29 08:22:00,68.0,67.0,30.21,SSE,160,0.0,2.0,98,0.00,,,0.00,,2013-05-29 12:22:00,
2013-05-29 08:32:00,70.0,69.0,30.21,East,85,1.0,2.0,98,0.00,,,0.00,,2013-05-29 12:32:00,
2013-05-29 08:42:00,70.0,69.0,30.21,East,85,1.0,2.0,98,0.00,,,0.00,,2013-05-29 12:42:00,
2013-05-29 08:52:00,74.0,70.0,30.21,South,177,1.0,3.0,86,0.00,,,0.00,,2013-05-29 12:52:00,
2013-05-29 09:02:00,75.0,68.0,30.21,SSE,154,4.0,8.0,78,0.00,,,0.00,,2013-05-29 13:02:00,
2013-05-29 09:11:00,75.0,68.0,30.21,SSE,154,4.0,8.0,78,0.00,,,0.00,,2013-05-29 13:11:00,
2013-05-29 09:22:00,77.0,68.0,30.21,East,99,2.0,8.0,74,0.00,,,0.00,,2013-05-29 13:22:00,
2013-05-29 09:32:00,77.0,68.0,30.22,ESE,111,3.0,10.0,73,0.00,,,0.00,,2013-05-29 13:32:00,
2013-05-29 09:42:00,77.0,68.0,30.22,ESE,111,3.0,10.0,73,0.00,,,0.00,,2013-05-29 13:42:00,
2013-05-29 09:53:00,78.0,68.0,30.22,ESE,113,3.0,7.0,72,0.00,,,0.00,,2013-05-29 13:53:00,
2013-05-29 10:02:00,78.0,67.0,30.22,ESE,109,3.0,9.0,70,0.00,,,0.00,,2013-05-29 14:02:00,
2013-05-29 10:11:00,78.0,67.0,30.22,ESE,109,3.0,9.0,70,0.00,,,0.00,,2013-05-29 14:11:00,
2013-05-29 10:22:00,78.0,67.0,30.22,SSE,147,5.0,12.0,68,0.00,,,0.00,,2013-05-29 14:22:00,
2013-05-29 10:32:00,78.0,67.0,30.22,SSE,167,5.0,12.0,69,0.00,,,0.00,,2013-05-29 14:32:00,
2013-05-29 10:42:00,78.0,67.0,30.22,SSE,167,5.0,12.0,69,0.00,,,0.00,,2013-05-29 14:42:00,
2013-05-29 10:52:00,77.0,67.0,30.22,SSE,149,2.0,8.0,71,0.00,,,0.00,,2013-05-29 14:52:00,
2013-05-29 11:01:00,78.0,67.0,30.22,South,170,2.0,8.0,70,0.00,,,0.00,,2013-05-29 15:01:00,
2013-05-29 11:11:00,78.0,67.0,30.22,South,170,2.0,8.0,70,0.00,,,0.00,,2013-05-29 15:11:00,
2013-05-29 11:21:00,78.0,67.0,30.23,SSW,195,4.0,9.0,69,0.00,,,0.00,,2013-05-29 15:21:00,
2013-05-29 11:33:00,79.0,68.0,30.23,SE,142,2.0,9.0,70,0.00,,,0.00,,2013-05-29 15:33:00,
2013-05-29 11:42:00,79.0,68.0,30.23,SE,142,2.0,9.0,70,0.00,,,0.00,,2013-05-29 15:42:00,
2013-05-29 11:53:00,81.0,68.0,30.24,South,173,4.0,8.0,65,0.00,,,0.00,,2013-05-29 15:53:00,
2013-05-29 12:03:00,81.0,67.0,30.24,South,187,4.0,9.0,63,0.00,,,0.00,,2013-05-29 16:03:00,
2013-05-29 12:13:00,81.0,67.0,30.24,South,187,4.0,9.0,63,0.00,,,0.00,,2013-05-29 16:13:00,
2013-05-29 12:22:00,79.0,68.0,30.24,ESE,112,3.0,10.0,68,0.00,,,0.00,,2013-05-29 16:22:00,
2013-05-29 12:33:00,79.0,68.0,30.24,SE,124,3.0,8.0,68,0.00,,,0.00,,2013-05-29 16:33:00,
2013-05-29 12:42:00,79.0,68.0,30.24,SE,124,3.0,8.0,68,0.00,,,0.00,,2013-05-29 16:42:00,
2013-05-29 12:52:00,80.0,68.0,30.24,South,169,5.0,12.0,66,0.00,,,0.00,,2013-05-29 16:52:00,
2013-05-29 13:02:00,81.0,68.0,30.23,SE,142,3.0,9.0,64,0.00,,,0.00,,2013-05-29 17:02:00,
2013-05-29 13:12:00,81.0,68.0,30.23,SE,142,3.0,9.0,64,0.00,,,0.00,,2013-05-29 17:12:00,
2013-05-29 13:22:00,81.0,68.0,30.23,SE,142,3.0,9.0,64,0.00,,,0.00,,2013-05-29 17:22:00,
2013-05-29 13:32:00,81.0,68.0,30.23,SE,142,3.0,9.0,64,0.00,,,0.00,,2013-05-29 17:32:00,
2013-05-29 13:42:00,81.0,68.0,30.23,SE,142,3.0,9.0,64,0.00,,,0.00,,2013-05-29 17:42:00,
2013-05-29 21:52:00,71.0,66.0,30.17,SE,125,0.0,2.0,84,0.00,,,0.00,,2013-05-30 01:52:00,
2013-05-29 22:02:00,71.0,66.0,30.16,ENE,65,1.0,2.0,85,0.00,,,0.00,,2013-05-30 02:02:00,
2013-05-29 22:11:00,71.0,66.0,30.16,ENE,65,1.0,2.0,85,0.00,,,0.00,,2013-05-30 02:11:00,
2013-05-29 22:22:00,71.0,66.0,30.17,ESE,120,1.0,3.0,84,0.00,,,0.00,,2013-05-30 02:22:00,
2013-05-29 22:32:00,71.0,66.0,30.18,South,186,0.0,3.0,85,0.00,,,0.00,,2013-05-30 02:32:00,
2013-05-29 22:42:00,71.0,66.0,30.18,South,186,0.0,3.0,85,0.00,,,0.00,,2013-05-30 02:42:00,
2013-05-29 22:52:00,71.0,66.0,30.18,South,186,0.0,3.0,85,0.00,,,0.00,,2013-05-30 02:52:00,
2013-05-29 23:02:00,70.0,66.0,30.19,NNE,23,0.0,1.0,87,0.00,,,0.00,,2013-05-30 03:02:00,
2013-05-29 23:11:00,70.0,66.0,30.19,NNE,23,0.0,1.0,87,0.00,,,0.00,,2013-05-30 03:11:00,
2013-05-29 23:21:00,69.0,65.0,30.20,NNE,23,0.0,0.0,88,0.00,,,0.00,,2013-05-30 03:21:00,
2013-05-29 23:33:00,69.0,66.0,30.20,NNE,23,0.0,0.0,90,0.00,,,0.00,,2013-05-30 03:33:00,
2013-05-29 23:43:00,69.0,66.0,30.20,NNE,23,0.0,0.0,90,0.00,,,0.00,,2013-05-30 03:43:00,
2013-05-29 23:53:00,69.0,66.0,30.20,NNE,23,0.0,1.0,91,0.00,,,0.00,,2013-05-30 03:53:00,